Home > Weather > Nicosia > Past weeks

Flag for Cyprus Past Weather in Nicosia, Cyprus — Yesterday and Last 2 Weeks

Now
79 °F

Passing clouds.


Feels Like: 81 °F
Forecast: 71 / 92 °F
Wind: 6 mph from Southeast

Location: Ercan

Current Time: Jun 29, 2016 at 8:35:05 AM

Latest Report: Jun 29, 2016 at 7:50 AM


Visibility: N/A

Pressure: 29.71 "Hg

Humidity: 74%

Dew Point: 70 °F

Location of NicosiaLocation

Past Weather in Nicosia — Graph

°F

Nicosia Temperature Yesterday

Maximum temperature yesterday: 95 °F (at 3:20 PM)
Minimum temperature yesterday: 68 °F (at 5:50 AM)
Average temperature yesterday: 82 °F

High & Low Weather Summary for the Past Weeks

 TemperatureHumidityPressure
High106 °F (Jun 21, 1:20 PM)89% (Jun 24, 6:50 AM)29.83 "Hg (Jun 24, 6:50 AM)
Low66 °F (Jun 15, 5:20 AM)12% (Jun 18, 12:50 PM)29.62 "Hg (Jun 28, 2:50 PM)
Average87 °F39%29.74 "Hg
* Reported Jun 14 7:20 AM — Jun 29 7:20 AM, Nicosia, Weather by CustomWeather, © 2016

Note: Actual official high and low records may vary slightly from our data, if they occured in-between our weather recording intervals... More about our weather records

Advertising

Nicosia Weather History for the Previous 24 Hours

Scroll right to see more
 ConditionsComfort  
Time TempWeatherWind HumidityBarometerVisibility
7:20 AM
Wed, Jun 29
77 °FSunny.No wind74%29.71 "Hg10 mi
6:50 AM73 °FSunny.No wind78%29.71 "Hg10 mi
6:20 AM72 °FPassing clouds.No wind83%29.71 "HgN/A
5:50 AM72 °FPassing clouds.No wind83%29.71 "HgN/A
5:20 AM72 °FPassing clouds.No wind83%29.68 "HgN/A
4:50 AM73 °FPassing clouds.No wind78%29.68 "HgN/A
4:20 AM73 °FPassing clouds.No wind78%29.68 "HgN/A
3:50 AM73 °FPassing clouds.3 mph78%29.71 "HgN/A
3:20 AM73 °FPassing clouds.5 mph78%29.71 "HgN/A
2:50 AM75 °FPassing clouds.No wind78%29.71 "HgN/A
2:20 AM75 °FPassing clouds.No wind83%29.68 "HgN/A
1:50 AM75 °FPassing clouds.3 mph78%29.68 "HgN/A
1:20 AM75 °FPassing clouds.3 mph78%29.68 "HgN/A
12:50 AM77 °FPassing clouds.3 mph74%29.68 "HgN/A
12:20 AM77 °FPassing clouds.3 mph74%29.71 "HgN/A
11:50 PM
Tue, Jun 28
77 °FPassing clouds.3 mph69%29.71 "HgN/A
11:20 PM77 °FPassing clouds.3 mph74%29.68 "HgN/A
10:50 PM79 °FPassing clouds.6 mph70%29.71 "HgN/A
10:20 PM81 °FPassing clouds.7 mph54%29.71 "HgN/A
9:50 PM81 °FPassing clouds.9 mph54%29.68 "HgN/A
9:20 PM82 °FPassing clouds.13 mph48%29.68 "HgN/A
8:50 PM82 °FPassing clouds.15 mph55%29.65 "HgN/A
8:20 PM82 °FPassing clouds.7 mph66%29.65 "HgN/A
7:50 PM84 °FPassing clouds.13 mph58%29.65 "HgN/A
7:20 PM86 °FScattered clouds.14 mph55%29.62 "HgN/A
6:50 PM88 °FScattered clouds.14 mph52%29.62 "HgN/A
6:20 PM90 °FScattered clouds.15 mph49%29.62 "HgN/A
5:50 PM90 °FScattered clouds.13 mph49%29.62 "HgN/A
5:20 PM90 °FScattered clouds.14 mph46%29.62 "HgN/A
4:50 PM91 °FScattered clouds.14 mph44%29.62 "HgN/A
4:20 PM93 °FScattered clouds.17 mph41%29.62 "HgN/A
3:50 PM95 °FScattered clouds.6 mph34%29.62 "HgN/A
3:20 PM95 °FScattered clouds.10 mph34%29.62 "HgN/A
2:50 PM93 °FScattered clouds.8 mph39%29.62 "HgN/A
2:20 PM91 °FPassing clouds.9 mph38%29.65 "HgN/A
1:50 PM91 °FPassing clouds.9 mph38%29.65 "HgN/A
1:20 PM91 °FPassing clouds.8 mph36%29.65 "HgN/A
12:50 PM90 °FPassing clouds.7 mph36%29.65 "HgN/A
12:20 PM90 °FPassing clouds.12 mph36%29.65 "HgN/A
11:50 AM90 °FPassing clouds.5 mph33%29.65 "HgN/A
11:20 AM88 °FPassing clouds.7 mph38%29.68 "HgN/A
10:50 AM88 °FPassing clouds.No wind38%29.68 "HgN/A
10:20 AM86 °FPassing clouds.6 mph43%29.65 "HgN/A
9:50 AM84 °FPassing clouds.5 mph45%29.68 "HgN/A
9:20 AM82 °FPassing clouds.No wind51%29.68 "HgN/A
8:50 AM81 °FPassing clouds.No wind54%29.68 "HgN/A
8:20 AM79 °FPassing clouds.6 mph58%29.68 "HgN/A
Weather by CustomWeather, © 2016

See weather overviewHow to use our weather pages